Weather reports worldwide

Advertisment
Zadar/Zemunik, Croatia (14431): temperature & dewpoint: 12.10.2018 19:00:00 - 18.10.2018 19:00:00 (CEST)Zadar/Zemunik, Croatia (14431): wind speed: 12.10.2018 19:00:00 - 18.10.2018 19:00:00 (CEST)Zadar/Zemunik, Croatia (14431): wind direction: 12.10.2018 19:00:00 - 18.10.2018 19:00:00 (CEST)Zadar/Zemunik, Croatia (14431): reduced air pressure: 12.10.2018 19:00:00 - 18.10.2018 19:00:00 (CEST)Zadar/Zemunik, Croatia (14431): visibility: 12.10.2018 19:00:00 - 18.10.2018 19:00:00 (CEST)
Date & Time tt [°C] td [°C] ff [km/h] ff [kn] dd ppp [hPa] vv [km]
18.10.2018 19:00:00 - - - - - - -
18.10.2018 18:00:00 20,0 12,0 9 5 WNW - 10
18.10.2018 17:00:00 22,2 12,6 11 6 WNW 1014,4 20
18.10.2018 16:00:00 24,0 12,0 13 7 WNW - 10
18.10.2018 15:00:00 25,0 13,0 13 7 NW - 10
18.10.2018 14:00:00 25,1 11,4 7 4 NNE 1014,7 15
18.10.2018 13:00:00 25,0 13,0 2 1 - - 10
18.10.2018 12:00:00 24,0 13,0 5 3 - - 10
18.10.2018 11:00:00 21,4 13,3 7 4 S 1016,3 20
18.10.2018 10:00:00 19,0 13,0 2 1 - - 10
18.10.2018 09:00:00 16,0 13,0 5 3 SE - 10
18.10.2018 08:00:00 11,0 10,5 0 0 N 1016,1 15
18.10.2018 07:00:00 11,0 11,0 5 3 SE - 10
18.10.2018 06:00:00 11,0 11,0 5 3 SE - 10
18.10.2018 05:00:00 12,9 12,1 0 0 N 1015,9 15
18.10.2018 04:00:00 14,0 13,0 2 1 ESE - 10
18.10.2018 03:00:00 14,0 13,0 0 0 N - 10
18.10.2018 02:00:00 14,5 13,4 0 0 N 1016,7 15
18.10.2018 01:00:00 15,0 14,0 4 2 SSE - 10
18.10.2018 00:00:00 16,0 14,0 2 1 - - 10
17.10.2018 23:00:00 16,7 14,7 4 2 - 1017,5 10
17.10.2018 22:00:00 16,0 14,0 0 0 N - 10
17.10.2018 21:00:00 17,0 14,0 0 0 N - 10
17.10.2018 20:00:00 17,2 14,0 7 4 NNW 1017,3 30
17.10.2018 19:00:00 19,0 14,0 2 1 - - 10
17.10.2018 18:00:00 20,0 15,0 4 2 WNW - 10
17.10.2018 17:00:00 22,1 13,1 7 4 W 1016,7 30
17.10.2018 16:00:00 24,0 11,0 5 3 - - 10
17.10.2018 15:00:00 24,0 12,0 9 5 WSW - 10
17.10.2018 14:00:00 24,0 13,9 7 4 WSW 1017,8 30
17.10.2018 13:00:00 23,0 13,0 8 4 SSW - 10
17.10.2018 12:00:00 23,0 12,0 11 6 S - 10
17.10.2018 11:00:00 19,6 12,8 4 2 SSE 1019,1 20
17.10.2018 10:00:00 18,0 13,0 8 4 SE - 10
17.10.2018 09:00:00 15,0 13,0 8 4 SE - 10
17.10.2018 08:00:00 14,1 11,7 7 4 ESE 1019,4 20
17.10.2018 07:00:00 13,0 12,0 8 4 SE - 10
17.10.2018 06:00:00 12,0 11,0 8 4 ESE - 10
17.10.2018 05:00:00 11,4 10,3 7 4 SE 1019,3 15
17.10.2018 04:00:00 13,0 12,0 8 4 SE - 10
17.10.2018 03:00:00 13,0 12,0 5 3 ESE - 10
17.10.2018 02:00:00 12,3 11,4 7 4 ESE 1020,2 20
17.10.2018 01:00:00 12,0 11,0 2 1 SE - 10
17.10.2018 00:00:00 14,0 12,0 2 1 SE - 10
16.10.2018 23:00:00 14,5 12,8 4 2 SE 1020,3 20
16.10.2018 22:00:00 15,0 13,0 0 0 N - 10
16.10.2018 21:00:00 16,0 13,0 4 2 - - 10
16.10.2018 20:00:00 17,0 13,2 0 0 N 1020,5 20
16.10.2018 19:00:00 18,0 13,0 5 3 N - 10
16.10.2018 18:00:00 20,0 14,0 0 0 N - 10
16.10.2018 17:00:00 22,4 12,3 4 2 S 1020,0 25
16.10.2018 16:00:00 23,0 12,0 8 4 SSE - 10
16.10.2018 15:00:00 23,0 12,0 13 7 SSE - 10
16.10.2018 14:00:00 23,6 10,6 11 6 SSE 1020,3 25
16.10.2018 13:00:00 23,0 11,0 15 8 S - 10
16.10.2018 12:00:00 22,0 11,0 8 4 SE - 10
16.10.2018 11:00:00 21,5 10,9 13 7 SE 1020,9 10
16.10.2018 10:00:00 21,0 12,0 8 4 SE - 10
16.10.2018 09:00:00 17,0 13,0 4 2 - - 10
16.10.2018 08:00:00 14,5 12,6 7 4 SE 1020,1 20
16.10.2018 07:00:00 14,0 13,0 0 0 N - 10
16.10.2018 06:00:00 14,0 13,0 5 3 E - 10
16.10.2018 05:00:00 14,3 12,6 8 4 ESE 1019,7 10
16.10.2018 04:00:00 14,0 13,0 5 3 SE - 10
16.10.2018 03:00:00 15,0 13,0 0 0 N - 10
16.10.2018 02:00:00 14,3 12,7 7 4 ESE 1019,9 20
16.10.2018 01:00:00 15,0 13,0 0 0 N - 10
16.10.2018 00:00:00 16,0 13,0 0 0 N - 10
15.10.2018 23:00:00 14,9 12,6 5 3 N 1019,9 10
15.10.2018 22:00:00 16,0 14,0 8 4 NE - 10
15.10.2018 21:00:00 16,0 13,0 4 2 NNW - 10
15.10.2018 20:00:00 16,7 13,2 4 2 NE 1020,0 20
15.10.2018 19:00:00 17,0 13,0 5 3 N - 10
15.10.2018 18:00:00 18,0 14,0 5 3 N - 10
15.10.2018 17:00:00 19,6 13,0 7 4 NNE 1019,2 20
15.10.2018 16:00:00 20,0 13,0 5 3 NNE - 10
15.10.2018 15:00:00 19,0 14,0 8 4 N - 10
15.10.2018 14:00:00 18,8 13,7 7 4 N 1019,4 20
15.10.2018 13:00:00 19,0 13,0 5 3 NNW - 10
15.10.2018 12:00:00 19,0 13,0 4 2 - - 10
15.10.2018 11:00:00 18,5 12,1 0 0 N 1020,1 20
15.10.2018 10:00:00 18,0 12,0 0 0 N - 10
15.10.2018 09:00:00 16,0 12,0 5 3 SE - 10
15.10.2018 08:00:00 14,6 11,5 7 4 ESE 1018,8 15
15.10.2018 07:00:00 15,0 11,0 9 5 ESE - 10
15.10.2018 06:00:00 15,0 11,0 9 5 ESE - 10
15.10.2018 05:00:00 13,9 11,7 7 4 ESE 1018,9 15
15.10.2018 04:00:00 14,0 11,0 5 3 ESE - 10
15.10.2018 03:00:00 14,0 12,0 4 2 SE - 10
15.10.2018 02:00:00 13,2 11,4 7 4 SSE 1019,2 15
15.10.2018 01:00:00 13,0 12,0 8 4 SE - 10
15.10.2018 00:00:00 14,0 12,0 5 3 ESE - 10
14.10.2018 23:00:00 13,4 11,6 7 4 SE 1019,3 15
14.10.2018 22:00:00 13,0 11,0 4 2 SE - 10
14.10.2018 21:00:00 14,0 12,0 4 2 - - 10
14.10.2018 20:00:00 14,7 11,7 4 2 NE 1019,0 20
14.10.2018 19:00:00 16,0 12,0 0 0 N - 10
14.10.2018 18:00:00 21,0 11,0 5 3 W - 10
14.10.2018 17:00:00 22,9 11,3 11 6 W 1018,5 25
14.10.2018 16:00:00 24,0 11,0 5 3 S - 10
14.10.2018 15:00:00 24,0 10,0 9 5 S - 10
14.10.2018 14:00:00 24,3 9,4 11 6 SSW 1019,5 25
14.10.2018 13:00:00 24,0 11,0 9 5 S - 10
14.10.2018 12:00:00 24,0 10,0 9 5 SSE - 10
14.10.2018 11:00:00 22,7 12,2 7 4 SSE 1020,8 20
14.10.2018 10:00:00 18,0 12,0 4 2 - - 10
14.10.2018 09:00:00 16,0 12,0 4 2 ESE - 10
14.10.2018 08:00:00 11,6 9,8 4 2 SE 1020,5 12
14.10.2018 07:00:00 10,0 9,0 4 2 ESE - 10
14.10.2018 06:00:00 12,0 9,0 9 5 SE - 10
14.10.2018 05:00:00 13,4 9,7 7 4 ESE 1020,8 15
14.10.2018 04:00:00 14,0 10,0 9 5 ESE - 10
14.10.2018 03:00:00 15,0 10,0 9 5 E - 10
14.10.2018 02:00:00 13,4 10,5 7 4 E 1021,6 15
14.10.2018 01:00:00 12,0 10,0 2 1 - - 10
14.10.2018 00:00:00 13,0 10,0 8 4 ESE - 10
13.10.2018 23:00:00 14,3 10,2 11 6 SSE 1022,1 15
13.10.2018 22:00:00 14,0 11,0 9 5 SE - 10
13.10.2018 21:00:00 13,0 11,0 9 5 SE - 10
13.10.2018 20:00:00 14,7 10,9 7 4 SE 1022,0 20
13.10.2018 19:00:00 17,0 11,0 4 2 - - 10
13.10.2018 18:00:00 20,0 11,0 11 6 WNW - 10
13.10.2018 17:00:00 23,6 10,5 14 8 W 1021,0 30
13.10.2018 16:00:00 25,0 10,0 11 6 W - 10
13.10.2018 15:00:00 26,0 7,0 5 3 - - 10
13.10.2018 14:00:00 25,3 7,0 11 6 ENE 1022,3 25
13.10.2018 13:00:00 25,0 7,0 8 4 E - 10
13.10.2018 12:00:00 24,0 9,0 13 7 ENE - 10
13.10.2018 11:00:00 23,3 8,8 11 6 ENE 1023,6 20
13.10.2018 10:00:00 22,0 9,0 8 4 E - 10
13.10.2018 09:00:00 18,0 13,0 0 0 N - 10
13.10.2018 08:00:00 13,2 9,5 4 2 - 1023,3 10
13.10.2018 07:00:00 16,0 9,0 5 3 - - 10
13.10.2018 06:00:00 16,0 10,0 9 5 ENE - 10
13.10.2018 05:00:00 16,2 9,8 7 4 ENE 1023,3 20
13.10.2018 04:00:00 14,0 12,0 9 5 E - 10
13.10.2018 03:00:00 10,0 9,0 0 0 N - 10
13.10.2018 02:00:00 10,1 9,4 4 2 WNW 1023,9 10
13.10.2018 01:00:00 11,0 10,0 0 0 N - 10
13.10.2018 00:00:00 11,0 11,0 5 3 SSE - 7
12.10.2018 23:00:00 11,5 11,1 7 4 ESE 1024,5 2,0
12.10.2018 22:00:00 12,0 12,0 5 3 SSE - 3,0
12.10.2018 21:00:00 13,0 13,0 5 3 SE - 8
12.10.2018 20:00:00 13,1 12,3 7 4 SE 1024,3 10
12.10.2018 19:00:00 17,0 14,0 5 3 W - 10

tt = temperature
td = dewpoint
ff = wind speed
dd = wind direction
ppp = reduced air pressure
vv = visibility

Next stations